| time (UTC) | temp F | wind direction | speed knots | gust knots | rain 1hr in | rain 24hr in | rain mn in | humidity % | barometer mb |
| 20260508053502 | 36 | 149 | 0.0 | 0.0 | 0.00 | 0.00 | 0.00 | 94 | 1017.4 |
| 20260508053000 | 36 | 148 | 0.0 | 0.0 | 0.00 | 0.00 | 0.00 | 94 | 1017.5 |
| 20260508052457 | 37 | 188 | 0.0 | 0.0 | 0.00 | 0.00 | 0.00 | 93 | 1017.5 |
| 20260508051954 | 37 | 230 | 0.0 | 0.0 | 0.00 | 0.00 | 0.00 | 91 | 1017.5 |
| 20260508051449 | 36 | 230 | 0.0 | 0.0 | 0.00 | 0.00 | 0.00 | 93 | 1017.4 |
| 20260508050945 | 36 | 247 | 0.0 | 0.0 | 0.00 | 0.00 | 0.00 | 93 | 1017.3 |
| 20260508050442 | 37 | 178 | 0.0 | 0.0 | 0.00 | 0.00 | 0.00 | 93 | 1017.4 |
| 20260508045939 | 37 | 208 | 0.0 | 0.0 | 0.00 | 0.00 | 0.00 | 92 | 1017.5 |
| 20260508045436 | 37 | 150 | 0.0 | 0.0 | 0.00 | 0.00 | 0.00 | 92 | 1017.4 |
| 20260508044933 | 37 | 205 | 0.0 | 0.0 | 0.00 | 0.00 | 0.00 | 91 | 1017.5 |
| 20260508044431 | 38 | 128 | 0.0 | 0.0 | 0.00 | 0.00 | 0.00 | 91 | 1017.4 |
| 20260508043925 | 38 | 235 | 0.0 | 0.0 | 0.00 | 0.00 | 0.00 | 88 | 1017.3 |
| 20260508043424 | 38 | 265 | 0.0 | 0.0 | 0.00 | 0.00 | 0.00 | 88 | 1017.3 |
| 20260508042919 | 39 | 239 | 0.0 | 0.0 | 0.00 | 0.00 | 0.00 | 88 | 1017.3 |
| 20260508042418 | 39 | 265 | 0.0 | 0.0 | 0.00 | 0.00 | 0.00 | 86 | 1017.4 |
| 20260508041914 | 39 | 230 | 0.0 | 0.0 | 0.00 | 0.00 | 0.00 | 86 | 1017.3 |
| 20260508041411 | 39 | 268 | 0.9 | 1.7 | 0.00 | 0.00 | 0.00 | 86 | 1017.0 |
| 20260508040907 | 39 | 224 | 0.0 | 0.0 | 0.00 | 0.00 | 0.00 | 87 | 1017.1 |
| 20260508040405 | 39 | 280 | 0.0 | 0.0 | 0.00 | 0.00 | 0.00 | 85 | 1016.8 |
| 20260508035903 | 40 | 231 | 0.0 | 0.0 | 0.00 | 0.02 | 0.02 | 85 | 1016.9 |
| 20260508035359 | 40 | 246 | 0.0 | 0.0 | 0.00 | 0.02 | 0.02 | 82 | 1016.9 |
| 20260508034856 | 41 | 266 | 0.0 | 0.0 | 0.00 | 0.02 | 0.02 | 81 | 1016.7 |
| 20260508034354 | 42 | 193 | 0.0 | 0.0 | 0.00 | 0.02 | 0.02 | 76 | 1016.7 |
| 20260508033850 | 42 | 236 | 0.0 | 0.0 | 0.00 | 0.02 | 0.02 | 74 | 1016.5 |
| 20260508033348 | 42 | 267 | 1.7 | 2.6 | 0.00 | 0.02 | 0.02 | 77 | 1016.5 |
| 20260508032845 | 42 | 251 | 0.0 | 0.0 | 0.00 | 0.02 | 0.02 | 77 | 1016.4 |
| 20260508032343 | 43 | 276 | 0.0 | 0.0 | 0.00 | 0.02 | 0.02 | 71 | 1016.4 |
| 20260508031839 | 43 | 279 | 0.9 | 1.7 | 0.00 | 0.02 | 0.02 | 73 | 1016.5 |
| 20260508031336 | 43 | 229 | 0.0 | 0.0 | 0.00 | 0.02 | 0.02 | 74 | 1016.3 |
| 20260508030832 | 44 | 247 | 0.0 | 0.0 | 0.00 | 0.02 | 0.02 | 69 | 1016.3 |
| 20260508030330 | 45 | 252 | 0.0 | 0.0 | 0.00 | 0.02 | 0.02 | 62 | 1016.2 |
| 20260508025826 | 46 | 117 | 0.9 | 1.7 | 0.00 | 0.02 | 0.02 | 57 | 1016.2 |
| 20260508025323 | 46 | 253 | 0.0 | 0.0 | 0.00 | 0.02 | 0.02 | 63 | 1016.4 |
| 20260508024820 | 46 | 301 | 0.0 | 0.0 | 0.00 | 0.02 | 0.02 | 66 | 1016.2 |
| 20260508024317 | 47 | 268 | 0.0 | 0.0 | 0.00 | 0.02 | 0.02 | 62 | 1016.1 |
| 20260508023814 | 46 | 170 | 2.6 | 5.2 | 0.00 | 0.02 | 0.02 | 58 | 1016.0 |
| 20260508023310 | 46 | 171 | 0.0 | 0.0 | 0.00 | 0.02 | 0.02 | 64 | 1016.0 |
| 20260508022807 | 46 | 237 | 0.9 | 1.7 | 0.00 | 0.02 | 0.02 | 68 | 1015.8 |
| 20260508022306 | 45 | 313 | 0.9 | 1.7 | 0.00 | 0.02 | 0.02 | 70 | 1015.8 |
| 20260508021800 | 46 | 261 | 0.9 | 2.6 | 0.00 | 0.02 | 0.02 | 60 | 1015.7 |
| 20260508021255 | 48 | 276 | 0.9 | 1.7 | 0.00 | 0.02 | 0.02 | 64 | 1015.7 |
| 20260508020752 | 45 | 290 | 0.9 | 1.7 | 0.00 | 0.02 | 0.02 | 71 | 1015.6 |
| 20260508020250 | 44 | 258 | 0.0 | 0.0 | 0.00 | 0.02 | 0.02 | 74 | 1015.7 |
| 20260508015747 | 44 | 186 | 0.0 | 0.0 | 0.00 | 0.02 | 0.02 | 77 | 1015.4 |
| 20260508015244 | 44 | 279 | 0.0 | 0.0 | 0.00 | 0.02 | 0.02 | 77 | 1015.6 |
| 20260508014741 | 45 | 234 | 0.0 | 2.6 | 0.00 | 0.02 | 0.02 | 78 | 1015.6 |
| 20260508014238 | 45 | 224 | 0.0 | 0.0 | 0.00 | 0.02 | 0.02 | 76 | 1015.4 |
| 20260508013733 | 46 | 236 | 0.0 | 0.0 | 0.00 | 0.02 | 0.02 | 74 | 1015.4 |
| 20260508013230 | 46 | 254 | 0.0 | 0.0 | 0.00 | 0.02 | 0.02 | 73 | 1015.2 |
| 20260508012728 | 46 | 260 | 0.9 | 1.7 | 0.00 | 0.02 | 0.02 | 74 | 1015.1 |
| 20260508012224 | 47 | 227 | 0.0 | 0.0 | 0.00 | 0.02 | 0.02 | 68 | 1015.0 |
| 20260508011723 | 46 | 265 | 0.0 | 0.0 | 0.00 | 0.02 | 0.02 | 72 | 1015.0 |
| 20260508011220 | 47 | 313 | 0.0 | 0.0 | 0.00 | 0.02 | 0.02 | 67 | 1015.0 |
| 20260508010716 | 47 | 266 | 0.9 | 1.7 | 0.00 | 0.02 | 0.02 | 73 | 1014.9 |
| 20260508010214 | 47 | 310 | 3.5 | 6.1 | 0.00 | 0.02 | 0.02 | 68 | 1014.8 |
| 20260508005711 | 47 | 229 | 0.0 | 0.0 | 0.00 | 0.02 | 0.02 | 71 | 1014.6 |
| 20260508005208 | 48 | 268 | 1.7 | 1.7 | 0.00 | 0.02 | 0.02 | 71 | 1014.8 |
| 20260508004703 | 49 | 264 | 0.0 | 2.6 | 0.00 | 0.02 | 0.02 | 68 | 1014.8 |
| 20260508004200 | 47 | 156 | 2.6 | 2.6 | 0.00 | 0.02 | 0.02 | 68 | 1014.6 |
| 20260508003657 | 48 | 266 | 0.0 | 0.0 | 0.00 | 0.02 | 0.02 | 71 | 1014.5 |
| 20260508003154 | 49 | 281 | 0.0 | 0.0 | 0.00 | 0.02 | 0.02 | 69 | 1014.6 |
| 20260508002650 | 51 | 286 | 0.0 | 1.7 | 0.00 | 0.02 | 0.02 | 60 | 1014.4 |
| 20260508002148 | 49 | 293 | 1.7 | 2.6 | 0.00 | 0.02 | 0.02 | 69 | 1014.5 |
| 20260508001643 | 50 | 272 | 1.7 | 2.6 | 0.00 | 0.02 | 0.02 | 64 | 1014.4 |
| 20260508001139 | 50 | 256 | 0.0 | 0.0 | 0.00 | 0.02 | 0.02 | 62 | 1014.4 |
| 20260508000635 | 51 | 268 | 0.9 | 2.6 | 0.00 | 0.02 | 0.02 | 61 | 1014.4 |
| 20260508000133 | 52 | 279 | 0.0 | 0.0 | 0.00 | 0.02 | 0.02 | 59 | 1014.4 |
| 20260507235630 | 53 | 49 | 0.9 | 2.6 | 0.00 | 0.02 | 0.02 | 51 | 1014.2 |
| 20260507235127 | 53 | 122 | 0.0 | 1.7 | 0.00 | 0.02 | 0.02 | 51 | 1014.1 |
| 20260507234624 | 54 | 76 | 0.9 | 7.0 | 0.00 | 0.02 | 0.02 | 48 | 1014.0 |
| 20260507234120 | 54 | 189 | 0.0 | 0.9 | 0.00 | 0.02 | 0.02 | 50 | 1014.0 |
| 20260507233617 | 54 | 275 | 1.7 | 9.6 | 0.00 | 0.02 | 0.02 | 48 | 1013.7 |
| 20260507233116 | 54 | 135 | 1.7 | 7.8 | 0.00 | 0.02 | 0.02 | 48 | 1013.9 |
| 20260507232612 | 55 | 278 | 1.7 | 2.6 | 0.00 | 0.02 | 0.02 | 53 | 1013.9 |
| 20260507232109 | 55 | 253 | 3.5 | 3.5 | 0.00 | 0.02 | 0.02 | 47 | 1013.9 |
| 20260507231605 | 55 | 292 | 0.9 | 3.5 | 0.00 | 0.02 | 0.02 | 50 | 1013.6 |
| 20260507231103 | 55 | 275 | 3.5 | 7.0 | 0.00 | 0.02 | 0.02 | 47 | 1013.5 |
| 20260507230559 | 56 | 187 | 0.9 | 1.7 | 0.00 | 0.02 | 0.02 | 46 | 1013.6 |
| 20260507230056 | 56 | 222 | 3.5 | 8.7 | 0.00 | 0.02 | 0.02 | 46 | 1013.5 |
| 20260507225550 | 56 | 312 | 2.6 | 7.8 | 0.00 | 0.02 | 0.02 | 46 | 1013.6 |
| 20260507225047 | 57 | 165 | 1.7 | 3.5 | 0.00 | 0.02 | 0.02 | 47 | 1013.6 |
| 20260507224543 | 57 | 283 | 1.7 | 2.6 | 0.00 | 0.02 | 0.02 | 46 | 1013.5 |
| 20260507224040 | 58 | 261 | 2.6 | 7.0 | 0.00 | 0.02 | 0.02 | 47 | 1013.6 |
| 20260507223536 | 56 | 317 | 2.6 | 2.6 | 0.00 | 0.02 | 0.02 | 47 | 1013.6 |
| 20260507223033 | 57 | 290 | 1.7 | 2.6 | 0.00 | 0.02 | 0.02 | 46 | 1013.5 |
| 20260507222530 | 58 | 252 | 1.7 | 3.5 | 0.00 | 0.02 | 0.02 | 46 | 1013.4 |
| 20260507222026 | 58 | 165 | 1.7 | 3.5 | 0.00 | 0.02 | 0.02 | 44 | 1013.4 |
| 20260507221523 | 57 | 255 | 4.3 | 7.8 | 0.00 | 0.02 | 0.02 | 48 | 1013.3 |
| 20260507221020 | 56 | 282 | 4.3 | 6.1 | 0.00 | 0.02 | 0.02 | 48 | 1013.2 |
| 20260507220517 | 57 | 321 | 2.6 | 5.2 | 0.00 | 0.02 | 0.02 | 46 | 1013.2 |
| 20260507220015 | 57 | 260 | 0.9 | 2.6 | 0.00 | 0.02 | 0.02 | 51 | 1013.2 |
| 20260507215510 | 57 | 37 | 5.2 | 7.0 | 0.00 | 0.02 | 0.02 | 47 | 1012.9 |
| 20260507215009 | 58 | 237 | 2.6 | 7.8 | 0.00 | 0.02 | 0.02 | 47 | 1013.0 |
| 20260507214505 | 57 | 316 | 3.5 | 3.5 | 0.00 | 0.02 | 0.02 | 47 | 1012.8 |
| 20260507214001 | 58 | 39 | 4.3 | 5.2 | 0.00 | 0.02 | 0.02 | 45 | 1012.9 |
| 20260507213458 | 59 | 272 | 2.6 | 7.8 | 0.00 | 0.02 | 0.02 | 47 | 1012.8 |
| 20260507212955 | 59 | 326 | 5.2 | 7.8 | 0.00 | 0.02 | 0.02 | 43 | 1012.7 |
| 20260507212450 | 60 | 310 | 6.1 | 8.7 | 0.00 | 0.02 | 0.02 | 44 | 1012.6 |
| 20260507211948 | 58 | 193 | 0.9 | 1.7 | 0.00 | 0.02 | 0.02 | 47 | 1012.5 |
| 20260507211444 | 58 | 221 | 0.0 | 7.0 | 0.00 | 0.02 | 0.02 | 45 | 1012.6 |
| 20260507210941 | 59 | 165 | 0.0 | 3.5 | 0.00 | 0.02 | 0.02 | 52 | 1012.5 |
| 20260507210438 | 58 | 273 | 0.9 | 2.6 | 0.00 | 0.02 | 0.02 | 51 | 1012.5 |
| 20260507205934 | 58 | 175 | 0.0 | 3.5 | 0.00 | 0.02 | 0.02 | 50 | 1012.4 |
| 20260507205432 | 60 | 346 | 0.9 | 2.6 | 0.00 | 0.02 | 0.02 | 48 | 1012.5 |
| 20260507204928 | 58 | 215 | 0.0 | 0.9 | 0.00 | 0.02 | 0.02 | 51 | 1012.5 |
| 20260507204424 | 58 | 52 | 2.6 | 7.8 | 0.00 | 0.02 | 0.02 | 48 | 1012.6 |
| 20260507203922 | 57 | 272 | 0.9 | 2.6 | 0.00 | 0.02 | 0.02 | 53 | 1012.5 |
| 20260507203420 | 57 | 45 | 2.6 | 3.5 | 0.00 | 0.02 | 0.02 | 53 | 1012.6 |
| 20260507202916 | 59 | 18 | 1.7 | 3.5 | 0.00 | 0.02 | 0.02 | 50 | 1012.5 |
| 20260507202413 | 59 | 199 | 2.6 | 8.7 | 0.00 | 0.02 | 0.02 | 48 | 1012.8 |
| 20260507201908 | 58 | 326 | 3.5 | 7.8 | 0.00 | 0.02 | 0.02 | 47 | 1012.7 |
| 20260507201404 | 58 | 300 | 3.5 | 5.2 | 0.00 | 0.02 | 0.02 | 52 | 1012.8 |
| 20260507200900 | 58 | 203 | 7.0 | 8.7 | 0.00 | 0.02 | 0.02 | 47 | 1012.9 |
| 20260507200356 | 59 | 322 | 5.2 | 7.0 | 0.00 | 0.02 | 0.02 | 49 | 1012.7 |
| 20260507195852 | 59 | 306 | 5.2 | 11.3 | 0.00 | 0.02 | 0.02 | 49 | 1012.9 |
| 20260507195350 | 60 | 265 | 5.2 | 7.0 | 0.00 | 0.02 | 0.02 | 48 | 1013.1 |
| 20260507194847 | 60 | 146 | 2.6 | 5.2 | 0.00 | 0.02 | 0.02 | 45 | 1013.0 |
| 20260507194343 | 58 | 156 | 2.6 | 6.1 | 0.00 | 0.02 | 0.02 | 54 | 1013.1 |
| 20260507193840 | 58 | 268 | 0.9 | 6.1 | 0.00 | 0.02 | 0.02 | 49 | 1012.9 |
| 20260507193337 | 58 | 259 | 1.7 | 8.7 | 0.00 | 0.02 | 0.02 | 50 | 1013.1 |
| 20260507192833 | 57 | 212 | 3.5 | 7.0 | 0.00 | 0.02 | 0.02 | 52 | 1013.0 |
| 20260507192330 | 59 | 264 | 7.0 | 12.2 | 0.00 | 0.02 | 0.02 | 50 | 1013.1 |
| 20260507191826 | 57 | 255 | 0.9 | 5.2 | 0.00 | 0.02 | 0.02 | 52 | 1013.1 |
| 20260507191322 | 57 | 249 | 2.6 | 6.1 | 0.00 | 0.02 | 0.02 | 52 | 1013.2 |
| 20260507190819 | 56 | 336 | 0.0 | 2.6 | 0.00 | 0.02 | 0.02 | 54 | 1013.2 |
| 20260507190318 | 56 | 303 | 4.3 | 5.2 | 0.00 | 0.02 | 0.02 | 57 | 1013.0 |
| 20260507185816 | 56 | 234 | 1.7 | 6.1 | 0.00 | 0.02 | 0.02 | 56 | 1013.1 |
| 20260507185313 | 56 | 260 | 3.5 | 8.7 | 0.00 | 0.02 | 0.02 | 57 | 1013.2 |
| 20260507184810 | 58 | 272 | 6.1 | 8.7 | 0.00 | 0.02 | 0.02 | 55 | 1013.3 |
| 20260507184308 | 59 | 152 | 1.7 | 3.5 | 0.00 | 0.02 | 0.02 | 53 | 1013.2 |
| 20260507183804 | 57 | 29 | 2.6 | 3.5 | 0.00 | 0.02 | 0.02 | 54 | 1013.4 |
| 20260507183302 | 56 | 202 | 1.7 | 9.6 | 0.00 | 0.02 | 0.02 | 56 | 1013.4 |
| 20260507182759 | 57 | 296 | 6.1 | 9.6 | 0.00 | 0.02 | 0.02 | 57 | 1013.3 |
| 20260507182253 | 58 | 139 | 2.6 | 8.7 | 0.00 | 0.02 | 0.02 | 54 | 1013.1 |
| 20260507181751 | 58 | 282 | 6.1 | 7.8 | 0.00 | 0.02 | 0.02 | 54 | 1013.1 |
| 20260507181247 | 60 | 24 | 1.7 | 2.6 | 0.00 | 0.02 | 0.02 | 54 | 1013.1 |
| 20260507180744 | 58 | 142 | 1.7 | 2.6 | 0.00 | 0.02 | 0.02 | 58 | 1013.1 |
| 20260507180241 | 56 | 40 | 7.0 | 8.7 | 0.00 | 0.02 | 0.02 | 57 | 1013.0 |
| 20260507175736 | 56 | 248 | 4.3 | 7.0 | 0.00 | 0.02 | 0.02 | 61 | 1013.1 |
| 20260507175233 | 58 | 303 | 6.1 | 9.6 | 0.00 | 0.02 | 0.02 | 56 | 1013.2 |
| 20260507174731 | 59 | 253 | 7.0 | 8.7 | 0.00 | 0.02 | 0.02 | 56 | 1013.1 |
| 20260507174228 | 57 | 214 | 2.6 | 3.5 | 0.00 | 0.02 | 0.02 | 63 | 1013.1 |
| 20260507173726 | 56 | 55 | 5.2 | 11.3 | 0.00 | 0.02 | 0.02 | 56 | 1013.3 |
| 20260507173222 | 56 | 96 | 1.7 | 3.5 | 0.00 | 0.02 | 0.02 | 55 | 1013.5 |
| 20260507172719 | 56 | 355 | 5.2 | 6.1 | 0.00 | 0.02 | 0.02 | 59 | 1013.9 |
| 20260507172216 | 57 | 27 | 1.7 | 3.5 | 0.00 | 0.02 | 0.02 | 62 | 1013.5 |
| 20260507171716 | 57 | 118 | 1.7 | 5.2 | 0.00 | 0.02 | 0.02 | 56 | 1013.7 |
| 20260507171214 | 59 | 310 | 4.3 | 7.8 | 0.00 | 0.02 | 0.02 | 55 | 1013.9 |
| 20260507170710 | 58 | 150 | 2.6 | 3.5 | 0.00 | 0.02 | 0.02 | 55 | 1014.1 |
| 20260507170208 | 57 | 335 | 1.7 | 6.1 | 0.00 | 0.02 | 0.02 | 59 | 1013.9 |
| 20260507165703 | 56 | 258 | 3.5 | 11.3 | 0.00 | 0.02 | 0.02 | 56 | 1014.0 |
| 20260507165159 | 55 | 142 | 2.6 | 7.0 | 0.00 | 0.02 | 0.02 | 60 | 1014.1 |
| 20260507164655 | 56 | 216 | 3.5 | 8.7 | 0.00 | 0.02 | 0.02 | 59 | 1014.2 |
| 20260507164153 | 55 | 267 | 7.0 | 9.6 | 0.00 | 0.02 | 0.02 | 59 | 1014.3 |
| 20260507163650 | 55 | 298 | 4.3 | 5.2 | 0.00 | 0.02 | 0.02 | 59 | 1014.6 |
| 20260507163148 | 55 | 38 | 1.7 | 3.5 | 0.00 | 0.02 | 0.02 | 60 | 1014.4 |
| 20260507162643 | 55 | 51 | 0.0 | 3.5 | 0.00 | 0.02 | 0.02 | 63 | 1014.5 |
| 20260507162140 | 54 | 247 | 0.0 | 3.5 | 0.00 | 0.02 | 0.02 | 63 | 1014.7 |
| 20260507161636 | 54 | 296 | 3.5 | 3.5 | 0.00 | 0.02 | 0.02 | 61 | 1014.7 |
| 20260507161133 | 53 | 353 | 0.9 | 3.5 | 0.00 | 0.02 | 0.02 | 63 | 1014.7 |
| 20260507160629 | 54 | 228 | 1.7 | 1.7 | 0.00 | 0.02 | 0.02 | 61 | 1014.7 |
| 20260507160126 | 54 | 351 | 0.0 | 3.5 | 0.00 | 0.02 | 0.02 | 61 | 1014.5 |
| 20260507155621 | 54 | 324 | 7.0 | 7.8 | 0.00 | 0.02 | 0.02 | 64 | 1014.5 |
| 20260507155118 | 53 | 114 | 1.7 | 2.6 | 0.00 | 0.02 | 0.02 | 63 | 1014.6 |
| 20260507154615 | 53 | 73 | 0.9 | 3.5 | 0.00 | 0.02 | 0.02 | 63 | 1014.6 |
| 20260507154112 | 53 | 89 | 3.5 | 3.5 | 0.00 | 0.02 | 0.02 | 68 | 1014.7 |
| 20260507153609 | 53 | 176 | 0.0 | 2.6 | 0.00 | 0.02 | 0.02 | 69 | 1014.7 |
| 20260507153105 | 53 | 130 | 1.7 | 5.2 | 0.00 | 0.02 | 0.02 | 67 | 1014.8 |
| 20260507152602 | 53 | 39 | 3.5 | 5.2 | 0.00 | 0.02 | 0.02 | 67 | 1014.8 |
| 20260507152057 | 52 | 121 | 0.0 | 7.0 | 0.00 | 0.02 | 0.02 | 66 | 1014.8 |
| 20260507151554 | 53 | 50 | 2.6 | 3.5 | 0.00 | 0.02 | 0.02 | 68 | 1014.9 |
| 20260507151051 | 52 | 88 | 1.7 | 5.2 | 0.00 | 0.02 | 0.02 | 66 | 1015.0 |
| 20260507150548 | 52 | 41 | 6.1 | 7.0 | 0.00 | 0.02 | 0.02 | 64 | 1014.9 |
| 20260507150039 | 52 | 105 | 0.0 | 3.5 | 0.00 | 0.02 | 0.02 | 67 | 1015.0 |
| 20260507145533 | 51 | 269 | 0.9 | 3.5 | 0.00 | 0.02 | 0.02 | 68 | 1015.0 |
| 20260507145032 | 52 | 307 | 3.5 | 8.7 | 0.00 | 0.02 | 0.02 | 66 | 1015.0 |
| 20260507144528 | 52 | 288 | 0.9 | 3.5 | 0.00 | 0.02 | 0.02 | 65 | 1015.0 |
| 20260507144026 | 53 | 56 | 3.5 | 5.2 | 0.00 | 0.02 | 0.02 | 68 | 1014.9 |
| 20260507143522 | 51 | 145 | 0.0 | 2.6 | 0.00 | 0.02 | 0.02 | 70 | 1015.1 |
| 20260507143020 | 51 | 205 | 2.6 | 6.1 | 0.00 | 0.02 | 0.02 | 69 | 1015.4 |
| 20260507142515 | 51 | 210 | 0.0 | 0.9 | 0.00 | 0.02 | 0.02 | 78 | 1015.3 |
| 20260507142012 | 51 | 121 | 0.9 | 1.7 | 0.00 | 0.02 | 0.02 | 82 | 1015.4 |
| 20260507141508 | 50 | 138 | 1.7 | 3.5 | 0.00 | 0.02 | 0.02 | 80 | 1015.6 |
| 20260507141006 | 51 | 132 | 0.9 | 2.6 | 0.00 | 0.02 | 0.02 | 81 | 1015.6 |
| 20260507140502 | 50 | 163 | 0.0 | 0.9 | 0.00 | 0.02 | 0.02 | 78 | 1015.6 |
| 20260507135959 | 50 | 163 | 0.9 | 2.6 | 0.00 | 0.02 | 0.02 | 82 | 1015.6 |
| 20260507135456 | 49 | 94 | 1.7 | 3.5 | 0.00 | 0.02 | 0.02 | 82 | 1015.6 |
| 20260507134953 | 49 | 65 | 2.6 | 2.6 | 0.00 | 0.02 | 0.02 | 83 | 1015.6 |
| 20260507134449 | 49 | 30 | 0.0 | 0.0 | 0.00 | 0.02 | 0.02 | 83 | 1015.7 |
| 20260507133946 | 49 | 87 | 1.7 | 1.7 | 0.00 | 0.02 | 0.02 | 83 | 1015.9 |
| 20260507133442 | 49 | 40 | 0.0 | 0.0 | 0.00 | 0.02 | 0.02 | 83 | 1015.7 |
| 20260507132941 | 49 | 161 | 0.9 | 2.6 | 0.00 | 0.02 | 0.02 | 84 | 1016.0 |
| 20260507132436 | 49 | 194 | 0.0 | 0.9 | 0.00 | 0.02 | 0.02 | 84 | 1016.0 |
| 20260507131933 | 48 | 260 | 0.0 | 1.7 | 0.00 | 0.02 | 0.02 | 85 | 1016.1 |
| 20260507131430 | 48 | 121 | 0.0 | 0.0 | 0.00 | 0.02 | 0.02 | 87 | 1015.9 |
| 20260507130927 | 48 | 255 | 0.0 | 0.0 | 0.00 | 0.02 | 0.02 | 86 | 1016.0 |
| 20260507130424 | 48 | 237 | 0.0 | 0.0 | 0.00 | 0.02 | 0.02 | 89 | 1016.0 |
| 20260507125923 | 48 | 168 | 0.0 | 0.0 | 0.00 | 0.02 | 0.02 | 89 | 1016.2 |
| 20260507125420 | 48 | 200 | 0.0 | 0.0 | 0.00 | 0.02 | 0.02 | 89 | 1016.4 |
| 20260507124918 | 47 | 195 | 0.0 | 0.0 | 0.00 | 0.02 | 0.02 | 90 | 1016.2 |
| 20260507124413 | 47 | 203 | 0.0 | 0.0 | 0.00 | 0.02 | 0.02 | 91 | 1016.4 |
| 20260507123912 | 47 | 236 | 0.0 | 0.0 | 0.00 | 0.02 | 0.02 | 92 | 1016.2 |
| 20260507123409 | 46 | 254 | 0.0 | 0.0 | 0.00 | 0.02 | 0.02 | 94 | 1016.4 |
| 20260507122905 | 46 | 283 | 0.0 | 0.0 | 0.00 | 0.02 | 0.02 | 96 | 1016.2 |
| 20260507122400 | 46 | 283 | 0.0 | 0.0 | 0.00 | 0.02 | 0.02 | 95 | 1016.4 |
| 20260507121857 | 46 | 283 | 0.0 | 0.0 | 0.00 | 0.02 | 0.02 | 96 | 1016.2 |
| 20260507121352 | 46 | 286 | 0.0 | 0.0 | 0.00 | 0.02 | 0.02 | 96 | 1016.0 |
| 20260507120849 | 45 | 297 | 0.0 | 0.0 | 0.00 | 0.02 | 0.02 | 96 | 1016.3 |
| 20260507120346 | 45 | 294 | 0.0 | 0.0 | 0.00 | 0.02 | 0.02 | 95 | 1016.0 |
| 20260507115842 | 45 | 295 | 0.0 | 0.0 | 0.00 | 0.02 | 0.02 | 96 | 1016.0 |
| 20260507115337 | 45 | 269 | 0.0 | 0.0 | 0.00 | 0.02 | 0.02 | 96 | 1016.1 |
| 20260507114833 | 45 | 294 | 0.0 | 0.0 | 0.00 | 0.02 | 0.02 | 97 | 1016.0 |
| 20260507114331 | 45 | 325 | 0.0 | 0.0 | 0.00 | 0.02 | 0.02 | 97 | 1015.9 |
| 20260507113828 | 46 | 283 | 0.0 | 0.0 | 0.00 | 0.02 | 0.02 | 97 | 1015.9 |
| 20260507113325 | 46 | 276 | 0.0 | 0.0 | 0.00 | 0.02 | 0.02 | 97 | 1015.7 |
| 20260507112823 | 46 | 293 | 0.0 | 0.0 | 0.00 | 0.02 | 0.02 | 97 | 1015.7 |
| 20260507112319 | 45 | 286 | 0.0 | 0.0 | 0.00 | 0.02 | 0.02 | 97 | 1015.6 |
| 20260507111818 | 46 | 286 | 0.0 | 0.0 | 0.00 | 0.02 | 0.02 | 97 | 1015.7 |
| 20260507111314 | 45 | 286 | 0.0 | 0.0 | 0.00 | 0.02 | 0.02 | 97 | 1015.7 |
| 20260507110810 | 45 | 286 | 0.0 | 0.0 | 0.00 | 0.02 | 0.02 | 97 | 1015.6 |
| 20260507110307 | 45 | 286 | 0.0 | 0.0 | 0.00 | 0.02 | 0.02 | 97 | 1015.4 |
| 20260507105804 | 45 | 286 | 0.0 | 0.0 | 0.00 | 0.02 | 0.02 | 97 | 1015.3 |
| 20260507105301 | 46 | 262 | 0.0 | 0.0 | 0.00 | 0.02 | 0.02 | 97 | 1015.4 |
| 20260507104758 | 46 | 262 | 0.0 | 0.0 | 0.00 | 0.02 | 0.02 | 96 | 1015.1 |
| 20260507104254 | 46 | 247 | 0.0 | 0.0 | 0.00 | 0.02 | 0.02 | 96 | 1015.2 |
| 20260507103750 | 46 | 284 | 0.9 | 2.6 | 0.00 | 0.02 | 0.02 | 95 | 1015.2 |
| 20260507103246 | 46 | 150 | 0.9 | 1.7 | 0.00 | 0.02 | 0.02 | 96 | 1015.2 |
| 20260507102743 | 46 | 130 | 1.7 | 2.6 | 0.00 | 0.02 | 0.02 | 95 | 1015.0 |
| 20260507102239 | 46 | 128 | 0.0 | 0.0 | 0.00 | 0.02 | 0.02 | 95 | 1015.1 |
| 20260507101735 | 46 | 122 | 0.0 | 0.0 | 0.00 | 0.02 | 0.02 | 93 | 1015.1 |
| 20260507101230 | 46 | 26 | 0.0 | 0.0 | 0.00 | 0.02 | 0.02 | 94 | 1015.2 |
| 20260507100727 | 46 | 31 | 0.0 | 0.9 | 0.00 | 0.02 | 0.02 | 94 | 1015.1 |
| 20260507100226 | 46 | 353 | 0.0 | 0.9 | 0.00 | 0.02 | 0.02 | 94 | 1015.0 |
| 20260507095724 | 46 | 348 | 1.7 | 3.5 | 0.00 | 0.02 | 0.02 | 94 | 1015.0 |
| 20260507095220 | 46 | 328 | 2.6 | 6.1 | 0.00 | 0.02 | 0.02 | 94 | 1014.9 |
| 20260507094717 | 46 | 314 | 0.9 | 2.6 | 0.00 | 0.02 | 0.02 | 95 | 1014.9 |
| 20260507094214 | 46 | 326 | 0.0 | 2.6 | 0.00 | 0.02 | 0.02 | 96 | 1014.8 |
| 20260507093711 | 46 | 9 | 1.7 | 3.5 | 0.00 | 0.02 | 0.02 | 97 | 1014.8 |
| 20260507093209 | 46 | 43 | 2.6 | 2.6 | 0.00 | 0.02 | 0.02 | 99 | 1014.8 |
| 20260507092706 | 47 | 41 | 2.6 | 2.6 | 0.00 | 0.02 | 0.02 | 99 | 1014.7 |
| 20260507092202 | 47 | 28 | 2.6 | 3.5 | 0.00 | 0.02 | 0.02 | 99 | 1014.4 |
| 20260507091659 | 47 | 128 | 0.0 | 0.0 | 0.00 | 0.02 | 0.02 | 99 | 1014.6 |
| 20260507091156 | 47 | 3 | 0.0 | 0.0 | 0.00 | 0.02 | 0.02 | 99 | 1014.7 |
| 20260507090651 | 47 | 3 | 0.0 | 0.0 | 0.00 | 0.02 | 0.02 | 99 | 1014.5 |
| 20260507090148 | 47 | 3 | 0.0 | 0.0 | 0.00 | 0.02 | 0.02 | 99 | 1014.6 |
| 20260507085645 | 47 | 3 | 0.0 | 0.0 | 0.00 | 0.02 | 0.02 | 99 | 1014.9 |
| 20260507085142 | 47 | 3 | 0.0 | 0.0 | 0.00 | 0.02 | 0.02 | 99 | 1014.9 |
| 20260507084639 | 47 | 3 | 0.0 | 0.0 | 0.00 | 0.02 | 0.02 | 99 | 1014.9 |
| 20260507084135 | 47 | 2 | 0.0 | 0.0 | 0.00 | 0.02 | 0.02 | 99 | 1014.8 |
| 20260507083632 | 47 | 14 | 0.0 | 0.0 | 0.00 | 0.02 | 0.02 | 99 | 1014.6 |
| 20260507083129 | 47 | 26 | 0.0 | 0.0 | 0.00 | 0.02 | 0.02 | 99 | 1014.8 |
| 20260507082625 | 47 | 28 | 0.0 | 0.0 | 0.00 | 0.02 | 0.02 | 99 | 1014.9 |
| 20260507082121 | 47 | 32 | 0.0 | 0.0 | 0.00 | 0.02 | 0.02 | 99 | 1014.6 |
| 20260507081618 | 47 | 29 | 0.0 | 0.0 | 0.00 | 0.02 | 0.02 | 99 | 1014.8 |
| 20260507081115 | 47 | 52 | 0.0 | 0.0 | 0.07 | 0.02 | 0.02 | 99 | 1014.7 |
| 20260507080611 | 47 | 358 | 0.0 | 0.0 | 0.07 | 0.02 | 0.02 | 99 | 1014.7 |
| 20260507080108 | 47 | 327 | 0.0 | 0.0 | 0.00 | 0.01 | 0.01 | 99 | 1014.9 |
| 20260507075602 | 47 | 342 | 0.0 | 0.0 | 0.00 | 0.01 | 0.01 | 99 | 1015.1 |
| 20260507075059 | 47 | 5 | 0.0 | 0.0 | 0.00 | 0.01 | 0.01 | 99 | 1015.1 |
| 20260507074556 | 47 | 24 | 0.0 | 0.0 | 0.00 | 0.01 | 0.01 | 99 | 1014.9 |
| 20260507074054 | 47 | 51 | 0.0 | 0.0 | 0.00 | 0.01 | 0.01 | 99 | 1014.8 |
| 20260507073550 | 47 | 39 | 0.0 | 0.0 | 0.00 | 0.01 | 0.01 | 99 | 1014.8 |
| 20260507073047 | 47 | 15 | 0.0 | 0.0 | 0.00 | 0.01 | 0.01 | 99 | 1014.8 |
| 20260507072544 | 47 | 40 | 0.0 | 0.0 | 0.00 | 0.01 | 0.01 | 99 | 1014.9 |
| 20260507072041 | 47 | 32 | 0.0 | 0.0 | 0.00 | 0.01 | 0.01 | 99 | 1015.0 |
| 20260507071539 | 47 | 40 | 0.0 | 0.0 | 0.00 | 0.01 | 0.01 | 99 | 1014.9 |
| 20260507071035 | 47 | 15 | 0.0 | 0.0 | 0.00 | 0.01 | 0.01 | 99 | 1014.8 |
| 20260507070532 | 47 | 45 | 0.0 | 0.0 | 0.00 | 0.01 | 0.01 | 99 | 1014.9 |
| 20260507070030 | 47 | 35 | 0.9 | 1.7 | 0.00 | 0.01 | 0.01 | 99 | 1014.6 |
| 20260507065526 | 47 | 47 | 0.9 | 1.7 | 0.00 | 0.01 | 0.01 | 99 | 1014.7 |
| 20260507065023 | 47 | 56 | 0.9 | 2.6 | 0.00 | 0.01 | 0.01 | 99 | 1014.7 |
| 20260507064521 | 47 | 34 | 0.9 | 1.7 | 0.00 | 0.01 | 0.01 | 98 | 1014.7 |
| 20260507064019 | 48 | 44 | 0.9 | 1.7 | 0.00 | 0.01 | 0.01 | 98 | 1014.8 |
| 20260507063516 | 48 | 44 | 0.0 | 0.9 | 0.00 | 0.01 | 0.01 | 98 | 1014.9 |
| 20260507063013 | 48 | 53 | 0.9 | 1.7 | 0.00 | 0.01 | 0.01 | 98 | 1014.8 |
| 20260507062510 | 48 | 37 | 0.9 | 1.7 | 0.00 | 0.01 | 0.01 | 98 | 1014.7 |
| 20260507062008 | 48 | 38 | 0.0 | 0.0 | 0.00 | 0.01 | 0.01 | 98 | 1014.8 |
| 20260507061505 | 48 | 53 | 0.0 | 0.9 | 0.00 | 0.01 | 0.01 | 98 | 1014.8 |
| 20260507061003 | 48 | 56 | 2.6 | 2.6 | 0.00 | 0.01 | 0.01 | 97 | 1014.9 |
| 20260507060500 | 48 | 48 | 0.9 | 1.7 | 0.00 | 0.01 | 0.01 | 97 | 1015.0 |
| 20260507055956 | 48 | 37 | 1.7 | 2.6 | 0.00 | 0.01 | 0.01 | 96 | 1015.0 |
| 20260507055451 | 48 | 354 | 1.7 | 3.5 | 0.00 | 0.01 | 0.01 | 96 | 1015.3 |
| 20260507054948 | 48 | 298 | 0.0 | 0.0 | 0.00 | 0.01 | 0.01 | 96 | 1015.3 |
| 20260507054444 | 48 | 21 | 1.7 | 1.7 | 0.00 | 0.01 | 0.01 | 96 | 1015.4 |